This is the latest recevied weather packets stored in our database for station/object KC2GYU. If no packets are shown the sender has not sent any weather packets the latest 10 day(s).
| Time | Temp. | Humidity | Pressure | Rain* | Wind** | Luminosity | Snow |
|---|---|---|---|---|---|---|---|
| 1777597223 | 12.22° C | 96% | 1010.3 hPa | 1.78 mm | - | 0 W/m² | - |
| 1777596918 | 12.22° C | 96% | 1010 hPa | 0 mm | - | 0 W/m² | - |
| 1777596615 | 12.22° C | 96% | 1009.7 hPa | 0 mm | - | 0 W/m² | - |
| 1777596312 | 12.22° C | 96% | 1009.7 hPa | 0 mm | - | 0 W/m² | - |
| 1777596010 | 12.22° C | 96% | 1009.5 hPa | 0 mm | - | 0 W/m² | - |
| 1777595710 | 12.22° C | 96% | 1009.3 hPa | 0 mm | - | 0 W/m² | - |
| 1777595417 | 12.22° C | 95% | 1009.3 hPa | 0 mm | - | 0 W/m² | - |
| 1777595102 | 12.22° C | 95% | 1009.4 hPa | 0 mm | - | 0 W/m² | - |
| 1777594798 | 12.22° C | 95% | 1008.9 hPa | 0 mm | - | 0 W/m² | - |
| 1777594495 | 12.22° C | 95% | 1009 hPa | 0 mm | - | 0 W/m² | - |
| 1777594190 | 12.22° C | 94% | 1008.9 hPa | 0 mm | - | 0 W/m² | - |
| 1777593887 | 12.78° C | 94% | 1008.8 hPa | 0 mm | - | 0 W/m² | - |
| 1777593583 | 12.78° C | 93% | 1009.1 hPa | 0 mm | - | 0 W/m² | - |
| 1777593278 | 12.78° C | 93% | 1008.9 hPa | 0 mm | - | 0 W/m² | - |
| 1777592972 | 12.78° C | 93% | 1008.7 hPa | 0 mm | - | 1 W/m² | - |
| 1777592667 | 12.78° C | 92% | 1008.8 hPa | 0 mm | - | 3 W/m² | - |
| 1777592363 | 13.33° C | 92% | 1008.8 hPa | 0 mm | - | 5 W/m² | - |
| 1777592059 | 13.33° C | 92% | 1008.8 hPa | 0 mm | - | 7 W/m² | - |
| 1777591757 | 13.33° C | 92% | 1008.8 hPa | 0 mm | - | 9 W/m² | - |
| 1777591452 | 13.33° C | 91% | 1008.8 hPa | 0 mm | - | 17 W/m² | - |
| 1777591149 | 13.89° C | 91% | 1008.8 hPa | 0 mm | - | 20 W/m² | - |
| 1777590843 | 13.89° C | 91% | 1008.6 hPa | 0 mm | - | 21 W/m² | - |
| 1777590540 | 13.89° C | 91% | 1008.7 hPa | 0 mm | - | 23 W/m² | - |
| 1777590235 | 13.89° C | 90% | 1008.7 hPa | 0 mm | - | 30 W/m² | - |
| 1777589934 | 13.89° C | 90% | 1008.6 hPa | 0 mm | - | 41 W/m² | - |
* Rain latest hour (hover to see other rain measurements)
** Current wind speed in m/s (hover to see current wind gust speed)